Погода в Галкине

Россия / Хабаровский край     48°33′50″N   135°22′30″E
темп.,
°C
ветер,
м/с
пор.,
м/с
влажн.,
%
обл.,
%
осадки,
мм/ч
давл.,
гПа
погр.,
м
21 апреля, ср
ср2101:00+3зсз613480 0.0 1013435
04:00+1з49520 0.0 1014176
07:00+1зюз35520 0.0 1017142
10:00+7юз33350 0.0 1018566
13:00+11сз23250 0.0 10181077
16:00+14сз23255 0.0 1017861
19:00+13в45360 0.0 1018145
22:00+8в35440 0.0 102073
22 апреля, чт
чт2201:00+6в33490 0.0 102230
04:00+5в22540 0.0 102221
07:00+5в23560 0.0 102356
10:00+12юв23370 0.0 1023316
13:00+18ю23270 0.0 1022788
16:00+22ю34225 0.0 10201330
19:00+20ююв22320 0.0 101915
22:00+15ююв333784 0.0 101938
23 апреля, пт
пт2301:00+13ю4642100 0.0 102065
04:00+11ю3648100 0.0 101971
07:00+10ю4956100 0.0 1020173
10:00+15ююз6845100 0.0 1020456
13:00+19юз5637100 0.0 1019877
16:00+20зюз71037100 0.0 10171436
19:00+17з61153100 0.0 1017481
22:00+12зюз81267100 0.1 1017843
24 апреля, сб
сб2401:00+9з71264100 0.1 1018713
04:00+4св6989100 0.1 1019503
07:00+2св4996100 0.4 1021409
10:00+3сз1296100 1.1 1021264
13:00+6з347049 0.3 1020968
16:00+11зсз6112696 0.3 10162923
19:00+10сз51030100 0.0 10151371
22:00+7сз5113899 0.1 1015769
25 апреля, вс
вс2501:00+4зсз5124113 0.0 1014340
04:00+3зсз3859100 0.1 1011309
07:00+2с596888 0.0 1012633
10:00+5ссв793919 0.0 10141907
13:00+7с5627100 0.0 10142866
16:00+8сз343073 0.0 10141910
19:00+8ссв132889 0.0 10131158
22:00+4юв23480 0.0 101569